Regional Weather Roundup
Issued by NWS

Home | Current Version | Previous Version | Text Only | Print | Product List | Glossary On
Versions: 1 2 3 4 5 6 7 8 9 10 11 12 13 14 15 16 17 18 19 20 21 22 23 24 25 26 27 28 29 30 31 32 33 34 35 36 37 38 39 40 41 42 43 44 45 46 47 48 49 50
000
ASUS43 KTOP 161459
RWRKS

WEATHER ROUNDUP FOR KANSAS
NATIONAL WEATHER SERVICE GOODLAND KS
1000 AM CDT WED APR 16 2014

NOTE:  "FAIR" INDICATES FEW OR NO CLOUDS BELOW 12,000 FEET WITH NO
SIGNIFICANT WEATHER AND/OR OBSTRUCTIONS TO VISIBILITY.

KSZ001>006-013>018-027>032-041>047-161600-
NORTHWEST KANSAS

CITY           SKY/WX    TMP DP  RH WIND       PRES   REMARKS
GOODLAND       MOSUNNY   49  33  54 N31G37    29.81R
HAYS           SUNNY     55  21  26 SW17      29.73R
HILL CITY      MOSUNNY   58  36  43 NW23G35   29.72R
RUSSELL        MOSUNNY   56  21  25 SW25G32   29.72R
$$

KSZ061>065-074>080-084>089-161600-
SOUTHWEST KANSAS

CITY           SKY/WX    TMP DP  RH WIND       PRES   REMARKS
DODGE CITY     PTSUNNY   54  24  31 W9        29.78R
ELKHART          N/A     53  27  36 N14         N/A
GARDEN CITY    MOSUNNY   55  31  39 N17       29.78R
GREAT BEND     PTSUNNY   54  21  28 S26G38    29.75R
LIBERAL        PTSUNNY   55  25  30 N10       29.82R
$$

KSZ066>073-081>083-090>101-161600-
SOUTHEAST KANSAS

CITY           SKY/WX    TMP DP  RH WIND       PRES   REMARKS
CHANUTE        MOSUNNY   53  31  42 S28G38    29.98F
COFFEYVILLE    PTSUNNY   53  31  42 S24G37    30.02R
HUTCHINSON     MOSUNNY   56  26  31 S29G37    29.80S
NEWTON         MOSUNNY   55  25  30 S39G47    29.85R
PARSONS        MOSUNNY   53  30  41 S20G33    30.01S
WICHITA INTL   MOSUNNY   55  28  35 S36G43    29.84R
WICHITA JABRA  SUNNY     55  28  35 S32G49    29.84S
WINFIELD       SUNNY     56  29  35 S32G44    29.90F
$$

KSZ007>012-019>026-033>040-048>060-102>105-161600-
NORTHEAST KANSAS

CITY           SKY/WX    TMP DP  RH WIND       PRES   REMARKS
CONCORDIA      PTSUNNY   54  24  31 S22G35    29.73R
EMPORIA        MOSUNNY   55  27  34 S29G40    29.87S
LAWRENCE       SUNNY     56  30  37 S23G41    29.91S
MANHATTAN      PTSUNNY   58  26  29 S24G40    29.78F
OLATHE IND     SUNNY     52  30  43 S26G37    29.94F
OLATHE EXE     SUNNY     51  30  44 S24G44    29.94F
SALINA         PTSUNNY   54  26  34 S28G41    29.77S
TOPEKA BILLARD SUNNY     55  28  35 S25G39    29.90R
TOPEKA FORBES  MOSUNNY   53  28  38 S26G40    29.87S
$$



USA.gov is the U.S. government's official web portal to all federal, state and local government web resources and services.